Location: *
(45.9500°N, 9.0833°E)
Time: 20:50:20
(UTC+00:00)

Meteor 1-20 Rocket - Pass Details

Date: 03 March 2021
Orbit: 820 x 891 km, 81.2° (Epoch: 20 April)

Event Time Altitude Azimuth Distance (km) Brightness Sun altitude
Rises 18:07:02 0° 195° (SSW) 3,338 7.5 -10.2°
Reaches altitude 10° 18:09:25 10° 198° (SSW) 2,409 6.8 -10.6°
Maximum altitude 18:14:51 71° 282° (WNW) 872 4.5 -11.5°
Drops below altitude 10° 18:20:21 10° 7° (N) 2,443 6.6 -12.5°
Sets 18:22:48 0° 10° (N) 3,389 7.3 -12.9°
